[[{"header":{"parameterUnit":"m.s-1","parameterCategory":1,"la1":30.2991,"la2":30.254,"lo1":-89.0895,"lo2":-89.0444,"dy":0.0017,"dx":0.0017,"nx":28,"ny":28,"refTime":"2025-07-15T09:00:00:Z","depth":0,"parameterNumber":2,"parameterNumberName":"U-component_of_WINDS"},"data":[0,0,0,0,0,0,0,0,0,0,0,0,0,0,0,0,0,0,0,0,0,0,0,0,0,0,0,0,0,0,0,0,0,0,0,0,0,0,0,0,0,0,0,0,0,0,0,0,0,0,0,0,0,0,0,0,0,0,1.2077,1.2078,0,1.215,1.2151,1.2152,1.2147,1.2146,1.2145,1.2144,1.2223,1.2226,1.2229,0,0,0,0,0,0,0,0,0,0,0,0,0,1.1937,1.194,1.2077,1.2078,1.2079,1.215,1.2151,1.2152,1.2147,1.2146,1.2144,1.2143,1.2222,1.2225,1.2229,0,0,0,0,0,0,0,0,0,0,0,0,0,1.2003,1.1941,1.2077,1.2085,1.2086,1.215,1.2151,1.2153,1.2147,1.2146,1.2144,1.2143,1.222,1.2225,1.223,1.2292,0,0,1.2244,1.2246,0,0,0,0,0,0,0,0,1.1999,1.2008,1.2083,1.2084,1.2086,1.2138,1.2131,1.2199,1.2148,1.2124,1.2144,1.2142,1.2196,1.2203,1.222,1.2295,1.2299,1.2244,1.2247,1.2249,1.2251,0,0,0,0,0,0,0,1.1995,1.2005,1.2106,1.2084,1.2086,1.2086,1.2094,1.2144,1.2169,1.2126,1.2126,1.2135,1.2197,1.2216,1.2222,1.23,1.2244,1.2248,1.2251,1.2253,1.2433,1.2435,0,0,0,0,0,0,1.1988,1.2001,1.2104,1.2108,1.2038,1.209,1.2099,1.2123,1.2168,1.2173,1.2136,1.2134,1.2208,1.2216,1.2225,1.2302,1.2249,1.2254,1.2256,1.2431,1.2433,1.2435,0,0,0,0,0,0,1.1985,1.1997,1.2101,1.2055,1.2068,1.2094,1.2122,1.2125,1.2144,1.2175,1.218,1.215,1.2207,1.2218,1.2275,1.2305,1.2256,1.226,1.2429,1.2432,1.2434,1.2456,0,0,0,0,0,0,1.1981,1.1996,1.2018,1.2055,1.207,1.2149,1.2123,1.2128,1.2152,1.215,1.219,1.2195,1.2207,1.2268,1.228,1.231,1.2264,1.2426,1.243,1.2433,1.2453,1.246,1.2465,0,0,0,0,0,1.1976,1.2022,1.2019,1.2032,1.2099,1.215,1.2159,1.2171,1.2154,1.2178,1.2198,1.2194,1.23,1.2274,1.2287,1.232,1.2424,1.2429,1.2433,1.2451,1.2459,1.2465,0,0,0,0,0,0,1.1988,1.2027,1.2025,1.2083,1.2114,1.2149,1.2179,1.2178,1.2215,1.2212,1.2225,1.2235,1.2293,1.2312,1.2283,1.2384,1.236,1.2367,1.2369,1.2377,1.2383,1.2377,1.2268,0,0,0,0,0,1.1998,1.2035,1.2067,1.2116,1.2131,1.2153,1.2176,1.2182,1.2214,1.2227,1.2252,1.2285,1.2326,1.2352,1.2391,1.2456,1.2466,1.2485,1.2491,1.2496,1.2502,1.2541,1.255,1.245,1.245,1.245,0,0,1.2018,1.2044,1.2066,1.2119,1.2143,1.2184,1.2164,1.2206,1.2237,1.2234,1.229,1.2309,1.2347,1.2409,1.2438,1.2427,1.2532,1.2501,1.2505,1.2509,1.2546,1.2556,1.2564,1.2453,1.2452,1.2452,0,0,1.2076,1.2098,1.2142,1.2167,1.2204,1.2218,1.2229,1.2265,1.2278,1.2334,1.2333,1.2371,1.244,1.2468,1.2491,1.2561,1.256,1.2574,1.2606,1.2643,1.2651,1.2658,1.2685,1.2695,1.258,1.258,1.258,0,1.2097,1.2155,1.2165,1.2209,1.2234,1.2232,1.2279,1.2303,1.2351,1.2369,1.2356,1.2444,1.2469,1.2539,1.2556,1.2574,1.2589,1.2569,1.2649,1.2656,1.2663,1.2689,1.2699,1.2581,1.2581,1.2581,1.2581,0,1.2181,1.2222,1.2254,1.2299,1.2327,1.2372,1.2391,1.2419,1.2423,1.244,1.2498,1.2529,1.2575,1.2592,1.2596,1.2663,1.2655,1.2645,1.2622,1.2674,1.2699,1.2709,1.2584,1.2583,1.2583,1.2582,0,0,1.2248,1.2299,1.2311,1.2333,1.2374,1.2407,1.2453,1.2498,1.2522,1.2556,1.2596,1.2656,1.2648,1.2674,1.2682,1.2715,1.2771,1.2701,1.2702,1.2715,1.285,1.2858,1.2869,1.277,1.2772,1.2774,1.2847,0,1.2311,1.2391,1.2402,1.2474,1.2513,1.2514,1.2554,1.2585,1.2602,1.264,1.2659,1.2702,1.2687,1.2703,1.2735,1.2758,1.2799,1.2752,1.281,1.2812,1.2802,1.2882,1.289,1.2958,1.2857,1.2858,1.2859,0,1.2395,1.2431,1.2506,1.2544,1.2561,1.2597,1.264,1.2675,1.2711,1.2722,1.2752,1.2757,1.2807,1.2781,1.2852,1.282,1.2844,1.2859,1.2862,1.2869,1.284,1.2892,1.2979,1.299,1.2875,1.2873,1.2872,0,1.2439,1.2506,1.256,1.2578,1.2623,1.2649,1.267,1.2704,1.2731,1.2769,1.2787,1.2831,1.2855,1.289,1.2907,1.2886,1.2978,1.2953,1.299,1.2989,1.3009,1.3008,1.3103,1.3023,1.3023,1.3023,1.3022,0,1.2509,1.2555,1.258,1.2614,1.2667,1.2681,1.2734,1.2753,1.2784,1.2824,1.2827,1.2864,1.2884,1.2924,1.2938,1.2996,1.3007,1.3018,1.3021,1.3019,1.3017,1.3036,1.3032,1.3025,1.3025,1.3024,1.3024,0,1.2567,1.2585,1.2645,1.2683,1.2694,1.2731,1.2765,1.2799,1.2816,1.2866,1.2878,1.2906,1.2954,1.2975,1.3034,1.3044,1.3111,1.311,1.3098,1.31,1.3136,1.3133,1.3247,1.3264,1.3171,1.3172,1.3173,0,1.2611,1.2647,1.2689,1.2715,1.2736,1.2777,1.2805,1.2821,1.285,1.2895,1.2924,1.2972,1.3011,1.3088,1.3115,1.3161,1.3163,1.32,1.317,1.3166,1.3166,1.3164,1.3169,1.3205,1.3206,1.3207,1.3208,0,1.2688,1.2696,1.2734,1.2777,1.281,1.2845,1.2879,1.29,1.2922,1.2955,1.3003,1.3034,1.3095,1.3143,1.3191,1.3214,1.3216,1.3217,1.3228,1.3226,1.3219,1.3225,1.3115,1.3214,1.3214,1.3213,1.3213,1.3212,1.2742,1.2775,1.281,1.2854,1.2881,1.2913,1.2948,1.2969,1.301,1.306,1.3067,1.312,1.3158,1.3223,1.3248,1.3291,1.3282,1.3298,1.3302,1.3306,1.3309,1.3211,1.33,1.3299,1.3299,1.3299,1.3299,0,1.2821,1.2844,1.2884,1.2932,1.2967,1.2964,1.3002,1.3032,1.3078,1.3113,1.3152,1.3209,1.3257,1.3288,1.3336,1.3365,1.3367,1.3378,1.3376,1.3382,1.3314,1.33,1.3375,1.3375,1.3375,1.3375,1.3375,1.3375,1.2866,1.2922,1.2935,1.3005,1.3028,1.3079,1.3102,1.3133,1.316,1.3224,1.3264,1.3283,1.3317,1.3368,1.3413,1.3421,1.344,1.3451,1.3459,1.3394,1.3387,1.3379,1.3366,1.3454,1.3454,1.3524,1.3524,1.3525]},{"header":{"parameterUnit":"m.s-1","parameterCategory":1,"la1":30.2991,"la2":30.254,"lo1":-89.0895,"lo2":-89.0444,"dy":0.0017,"dx":0.0017,"nx":28,"ny":28,"refTime":"2025-07-15T09:00:00:Z","depth":0,"parameterNumber":3,"parameterNumberName":"V-component_of_WINDS"},"data":[0,0,0,0,0,0,0,0,0,0,0,0,0,0,0,0,0,0,0,0,0,0,0,0,0,0,0,0,0,0,0,0,0,0,0,0,0,0,0,0,0,0,0,0,0,0,0,0,0,0,0,0,0,0,0,0,0,0,-1.1223,-1.1223,0,-1.126,-1.126,-1.1261,-1.1324,-1.1325,-1.1326,-1.1327,-1.1364,-1.1364,-1.1364,0,0,0,0,0,0,0,0,0,0,0,0,0,-1.1208,-1.1207,-1.1223,-1.1223,-1.1224,-1.126,-1.126,-1.1261,-1.1324,-1.1325,-1.1327,-1.1328,-1.1365,-1.1364,-1.1364,0,0,0,0,0,0,0,0,0,0,0,0,0,-1.1226,-1.1207,-1.1223,-1.1259,-1.1263,-1.126,-1.126,-1.1261,-1.1323,-1.1325,-1.1327,-1.1329,-1.1365,-1.1364,-1.1364,-1.1328,0,0,-1.1364,-1.1364,0,0,0,0,0,0,0,0,-1.1225,-1.1227,-1.1254,-1.1257,-1.1261,-1.1289,-1.1269,-1.1283,-1.1323,-1.13,-1.1327,-1.1329,-1.1338,-1.134,-1.1343,-1.133,-1.1331,-1.1364,-1.1364,-1.1364,-1.1364,0,0,0,0,0,0,0,-1.1224,-1.1226,-1.1238,-1.1254,-1.1258,-1.1275,-1.1279,-1.1272,-1.1309,-1.1303,-1.1307,-1.1311,-1.134,-1.1343,-1.1344,-1.1332,-1.1364,-1.1364,-1.1363,-1.1363,-1.1294,-1.1293,0,0,0,0,0,0,-1.1217,-1.1224,-1.1236,-1.1239,-1.1247,-1.1273,-1.1279,-1.1278,-1.1309,-1.1315,-1.1309,-1.1314,-1.1343,-1.1345,-1.1346,-1.1308,-1.1364,-1.1363,-1.1363,-1.1296,-1.1294,-1.1292,0,0,0,0,0,0,-1.1216,-1.1217,-1.1235,-1.1233,-1.1236,-1.1272,-1.1271,-1.1278,-1.1281,-1.1314,-1.1321,-1.1305,-1.1344,-1.1346,-1.1333,-1.131,-1.1363,-1.1363,-1.1298,-1.1295,-1.1293,-1.1231,0,0,0,0,0,0,-1.1216,-1.1217,-1.1203,-1.1232,-1.1236,-1.122,-1.127,-1.1278,-1.1281,-1.1287,-1.1312,-1.1318,-1.1346,-1.1333,-1.1333,-1.1311,-1.1363,-1.13,-1.1297,-1.1294,-1.1235,-1.1226,-1.1219,0,0,0,0,0,-1.1215,-1.1183,-1.1202,-1.1203,-1.1219,-1.1219,-1.1221,-1.1254,-1.1279,-1.1266,-1.1287,-1.1317,-1.1313,-1.1331,-1.1331,-1.1309,-1.1302,-1.1298,-1.1294,-1.1239,-1.1228,-1.1219,0,0,0,0,0,0,-1.1149,-1.1187,-1.1209,-1.1185,-1.1198,-1.123,-1.1214,-1.1241,-1.1247,-1.1253,-1.1292,-1.1298,-1.128,-1.1293,-1.1313,-1.1278,-1.1312,-1.1308,-1.127,-1.126,-1.1252,-1.125,-1.1363,0,0,0,0,0,-1.1132,-1.1129,-1.1162,-1.1138,-1.1144,-1.1177,-1.1178,-1.1203,-1.1218,-1.1224,-1.1244,-1.1258,-1.1261,-1.1261,-1.1264,-1.1237,-1.1245,-1.1222,-1.1214,-1.1208,-1.1204,-1.1194,-1.1185,-1.1279,-1.1279,-1.1279,0,0,-1.1096,-1.1117,-1.1112,-1.1125,-1.1139,-1.1135,-1.1182,-1.1175,-1.1173,-1.1223,-1.1212,-1.1228,-1.1246,-1.1227,-1.1219,-1.1237,-1.118,-1.1203,-1.1197,-1.1197,-1.1189,-1.118,-1.1173,-1.1277,-1.1277,-1.1277,0,0,-1.103,-1.1044,-1.1027,-1.104,-1.106,-1.1084,-1.1079,-1.1107,-1.112,-1.111,-1.1148,-1.1147,-1.1148,-1.1161,-1.1167,-1.1109,-1.1138,-1.1109,-1.1068,-1.1057,-1.105,-1.1044,-1.1026,-1.1019,-1.1105,-1.1105,-1.1105,0,-1.0983,-1.098,-1.1015,-1.1007,-1.1013,-1.1059,-1.1043,-1.1054,-1.1073,-1.1077,-1.1097,-1.1103,-1.1118,-1.1103,-1.109,-1.1092,-1.1091,-1.1107,-1.1048,-1.1042,-1.1037,-1.102,-1.1013,-1.1101,-1.1102,-1.1102,-1.1103,0,-1.0923,-1.0919,-1.0903,-1.0923,-1.0927,-1.0915,-1.095,-1.0949,-1.0974,-1.0995,-1.0986,-1.1006,-1.1016,-1.1014,-1.1037,-1.1004,-1.1015,-1.1041,-1.1077,-1.1024,-1.1009,-1.1003,-1.1096,-1.1098,-1.1099,-1.11,0,0,-1.0815,-1.0857,-1.0851,-1.0862,-1.0888,-1.0887,-1.0878,-1.0888,-1.0889,-1.0901,-1.0896,-1.0898,-1.0923,-1.093,-1.0955,-1.0946,-1.0902,-1.0974,-1.0975,-1.0962,-1.0871,-1.0853,-1.0845,-1.0921,-1.092,-1.0919,-1.0871,0,-1.0757,-1.0744,-1.0777,-1.0757,-1.0756,-1.08,-1.0793,-1.0809,-1.0829,-1.0832,-1.0854,-1.0856,-1.0887,-1.0893,-1.0886,-1.0909,-1.0885,-1.0913,-1.0919,-1.0919,-1.0915,-1.0837,-1.0817,-1.077,-1.0865,-1.0864,-1.0863,0,-1.0686,-1.0697,-1.0677,-1.0708,-1.0709,-1.0701,-1.0716,-1.0717,-1.0737,-1.0753,-1.0762,-1.0792,-1.0787,-1.082,-1.0815,-1.0833,-1.0838,-1.085,-1.0849,-1.0852,-1.0889,-1.084,-1.0755,-1.0749,-1.0854,-1.0854,-1.0855,0,-1.0614,-1.0623,-1.0613,-1.0621,-1.0655,-1.065,-1.0664,-1.0686,-1.0691,-1.0704,-1.0708,-1.0719,-1.0725,-1.0734,-1.0766,-1.0787,-1.0758,-1.0793,-1.0773,-1.0772,-1.0766,-1.0766,-1.0683,-1.0765,-1.0765,-1.0765,-1.0765,0,-1.0546,-1.0532,-1.0582,-1.0575,-1.0563,-1.0601,-1.0587,-1.0606,-1.0626,-1.0625,-1.0663,-1.0662,-1.0704,-1.0708,-1.0733,-1.0727,-1.0729,-1.0743,-1.075,-1.0741,-1.0739,-1.0745,-1.075,-1.0763,-1.0763,-1.0764,-1.0764,0,-1.0463,-1.0495,-1.0488,-1.0522,-1.0531,-1.052,-1.055,-1.0547,-1.057,-1.0569,-1.0571,-1.0607,-1.0614,-1.0648,-1.0661,-1.0679,-1.0665,-1.0677,-1.0658,-1.0663,-1.0642,-1.0644,-1.0561,-1.0554,-1.0638,-1.0637,-1.0636,0,-1.0418,-1.041,-1.0444,-1.0447,-1.046,-1.0463,-1.047,-1.0507,-1.0513,-1.0537,-1.0531,-1.0541,-1.0551,-1.056,-1.0589,-1.0601,-1.0615,-1.0586,-1.0617,-1.0609,-1.0618,-1.0619,-1.062,-1.0579,-1.0578,-1.0577,-1.0576,0,-1.0337,-1.0354,-1.0362,-1.0376,-1.0383,-1.0395,-1.041,-1.041,-1.0453,-1.0457,-1.0465,-1.0473,-1.0489,-1.05,-1.0517,-1.0532,-1.0562,-1.0566,-1.0563,-1.0554,-1.0544,-1.0552,-1.0642,-1.0568,-1.0569,-1.057,-1.057,-1.057,-1.0274,-1.027,-1.0294,-1.0302,-1.0318,-1.0332,-1.0331,-1.0355,-1.0363,-1.0379,-1.0401,-1.0407,-1.043,-1.0457,-1.047,-1.0476,-1.0493,-1.0486,-1.0486,-1.0484,-1.0481,-1.0542,-1.0479,-1.0479,-1.048,-1.048,-1.048,0,-1.0198,-1.0216,-1.0223,-1.0244,-1.0251,-1.0278,-1.0297,-1.0302,-1.0306,-1.0325,-1.0336,-1.0346,-1.0358,-1.0387,-1.0402,-1.0401,-1.0415,-1.0404,-1.0405,-1.0409,-1.0463,-1.0466,-1.0392,-1.0392,-1.0392,-1.0392,-1.0392,-1.0392,-1.0159,-1.0154,-1.0174,-1.0178,-1.0196,-1.0203,-1.0212,-1.0226,-1.0241,-1.0252,-1.0262,-1.0281,-1.0306,-1.0323,-1.0335,-1.0344,-1.0348,-1.0333,-1.0346,-1.0396,-1.0405,-1.0413,-1.0416,-1.0333,-1.0333,-1.0292,-1.0291,-1.0291]}]]